CZ-4B R/B

基本信息
目录编号:
37181
目录名称:
CZ-4B R/B
国际标识:
2010-051C
轨道中心:
EARTH
物体状态:
在轨
发射日期:
2010-10-06 UTC
国别:
中国 (CN)
轨道信息
数据来源: 国际轨道数据
星历时间: 2026-09-04T12:05:29+0800
半长轴: 6886.948km
偏心率: 0.0071225
轨道倾角: 97.777°
近地点辐角: 197.252°
升交点赤经: 294.566°
平近点角: 162.629°
近地点: 459.758km
远地点: 557.864km
周期: 94.798分钟
每日圈数: 15.190169
详细信息
发射场:
TSC
轨道高度:
LEO
数据来源:
AOE Integration Group
参考系:
TEME
时间系统:
UTC
历元类型:
SGP4
2D轨道图
3D轨道图
轨道高度分析图
轨道倾角分析图
轨道综合分析图
查看轨道综合分析图